Location: Benque
(43.2594°N, 0.9178°E)
Time: 04:26:50
(UTC+00:00)

Cosmos 1812 Rocket - Pass Details

Date: 24 January 2020
Orbit: 606 x 631 km, 82.5° (Epoch: 16 February)

Event Time Altitude Azimuth Distance (km) Brightness Sun altitude
Rises 17:28:18 0° 351° (N) 2,930 6.9 -6.1°
Reaches altitude 10° 17:30:33 10° 351° (N) 2,020 6.1 -6.5°
Maximum altitude 17:35:03 87° 264° (W) 638 3.7 -7.2°
Drops below altitude 10° 17:39:30 10° 174° (S) 2,005 6.4 -8.0°
Sets 17:41:43 0° 174° (S) 2,907 7.2 -8.4°
